Regional Weather Roundup
Issued by NWS

Home | Current Version | Previous Version | Text Only | Print | Product List | Glossary Off
Versions: 1 2 3 4 5 6 7 8 9 10 11 12 13 14 15 16 17 18 19 20 21 22 23 24 25 26 27 28 29 30 31 32 33 34 35 36 37 38 39 40 41 42 43 44 45 46 47 48 49 50

000
ASUS45 KBOI 231710
RWRID
WEATHER ROUNDUP FOR IDAHO
NATIONAL WEATHER SERVICE BOISE ID
1100 AM MDT TUE SEP 23 2014

NOTE: "FAIR" INDICATES FEW OR NO CLOUDS BELOW 12000 FEET
WITH NO SIGNIFICANT WEATHER AND/OR OBSTRUCTIONS TO VISIBILITY

IDZ012-014-231800-
SOUTHWEST IDAHO


CITY           SKY/WX    TMP DP  RH WIND       PRES   REMARKS
BOISE          PTSUNNY   72  50  45 SE7       30.03R
CALDWELL       PTSUNNY   70  50  49 S10       30.04R
MOUNTAIN HOME  MOSUNNY   69  53  56 E23       30.05S
$$

IDZ016-017-231800-
SOUTHCENTRAL IDAHO


CITY           SKY/WX    TMP DP  RH WIND       PRES   REMARKS
BURLEY         PTSUNNY   65  53  65 E3        30.13F
JEROME         PTSUNNY   67  52  58 NE14      30.13R
TWIN FALLS     PTSUNNY   69  52  54 E7        30.12S
$$

IDZ019>023-231800-
SOUTHEAST IDAHO


CITY           SKY/WX    TMP DP  RH WIND       PRES   REMARKS
IDAHO FALLS    MOSUNNY   66  51  58 SE3       30.21S
POCATELLO      SUNNY     67  53  61 CALM      30.18F
REXBURG        SUNNY     62  53  72 S3        30.22R
$$

IDZ006-010-011-018-031-032-231800-
CENTRAL IDAHO MOUNTAINS


CITY           SKY/WX    TMP DP  RH WIND       PRES   REMARKS
MCCALL         CLOUDY    61  49  64 CALM      30.12R
HAILEY         MOSUNNY   61  48  63 NW5       30.22S
STANLEY          N/A     48  43  82 N3        30.25F
SALMON         MOSUNNY   61  52  72 SW3       30.13F
CHALLIS          N/A    N/A N/A N/A MISG      30.18F
$$

IDZ002-004-006-007-026-231800-
NORTHERN IDAHO


CITY           SKY/WX    TMP DP  RH WIND       PRES   REMARKS
LEWISTON       CLOUDY    69  59  70 E8        29.91F
LOWELL           N/A     63  54  72 CALM      29.98F
COEUR D`ALENE  MOSUNNY   66  55  68 E6        29.95S
MULLAN PASS    CLOUDY    56  48  74 VRB7      30.12S
$$


USA.gov is the U.S. government's official web portal to all federal, state and local government web resources and services.